Flag for U.S.A. Weather past 2 weeks in Youngstown, Ohio, U.S.A.

Now
66 °F

Overcast.


Feels Like: 66 °F
Forecast: 49 / 76 °F
Wind: 9 mph from Southeast

Location: Youngstown-Warren Regional Airport

Current Time: Jun 3, 2015 at 6:03:33 PM

Latest Report: Jun 3, 2015 at 4:51 PM


Visibility: 10 mi

Pressure: 30.10 "Hg

Humidity: 68%

Dew point: 55 °F

Location of YoungstownLocation

Historic Weather in Youngstown — Graph

°F

Youngstown temperature yesterday

Maximum temperature yesterday: 69 °F (at 6:51 PM)
Minimum temperature yesterday: 50 °F (at 1:51 AM)
Average temperature yesterday: 57 °F

Past Weeks' High & Low Weather Summary

 TemperatureHumidityPressure
High84 °F (May 29, 3:51 PM)100% (May 31, 8:51 AM)30.46 "Hg (May 31, 8:51 AM)
Low32 °F (May 23, 5:51 AM)22% (May 23, 4:51 PM)29.91 "Hg (May 31, 2:51 PM)
Average61 °F70%30.13 "Hg
* Reported May 19 4:51 PM — Jun 3 4:51 PM, Youngstown, Weather by CustomWeather, © 2015

Note: Actual official high and low records may vary slightly from our data, if they occured in-between our weather recording intervals... More about our weather records

Advertising

Youngstown weather history for previous 24 hours

 ConditionsComfort  
Time TempWeatherWind HumidityBarometerVisibility
4:51 PM
Wed, Jun 3
66 °FOvercast.9 mph68%30.10 "Hg10 mi
3:51 PM67 °FOvercast.13 mph66%30.11 "Hg10 mi
2:51 PM70 °FOvercast.12 mph64%30.10 "Hg10 mi
1:51 PM69 °FOvercast.14 mph61%30.11 "Hg10 mi
12:51 PM68 °FPartly sunny.10 mph63%30.13 "Hg10 mi
11:51 AM67 °FScattered clouds.12 mph66%30.14 "Hg10 mi
10:51 AM63 °FScattered clouds.9 mph70%30.15 "Hg10 mi
9:51 AM60 °FScattered clouds.9 mph75%30.15 "Hg10 mi
8:56 AM56 °FPartly sunny.12 mph81%30.16 "Hg10 mi
7:51 AM54 °FPassing clouds.10 mph86%30.14 "Hg10 mi
6:51 AM51 °FPassing clouds.9 mph92%30.14 "Hg10 mi
5:51 AM51 °FPassing clouds.8 mph92%30.14 "Hg10 mi
4:51 AM50 °FPassing clouds.6 mph96%30.14 "Hg10 mi
3:51 AM51 °FPassing clouds.6 mph92%30.14 "Hg10 mi
2:51 AM48 °FFog.7 mph100%30.14 "Hg10 mi
1:51 AM50 °FPassing clouds.5 mph96%30.14 "Hg10 mi
12:51 AM49 °FPassing clouds.6 mph97%30.14 "Hg10 mi
11:51 PM
Tue, Jun 2
50 °FPassing clouds.5 mph96%30.15 "Hg10 mi
10:51 PM55 °FPassing clouds.5 mph87%30.15 "Hg10 mi
9:51 PM58 °FPassing clouds.6 mph81%30.13 "Hg10 mi
8:51 PM62 °FBroken clouds.8 mph70%30.11 "Hg10 mi
7:51 PM68 °FBroken clouds.5 mph55%30.10 "Hg10 mi
6:51 PM69 °FBroken clouds.9 mph51%30.09 "Hg10 mi
Weather by CustomWeather, © 2015

See weather overviewHow to use our weather pages